Regional Weather Roundup
Issued by NWS

Home | Current Version | Previous Version | Graphics & Text | Print | Product List | Glossary On
Versions: 1 2 3 4 5 6 7 8 9 10 11 12 13 14 15 16 17 18 19 20 21 22 23 24 25 26 27 28 29 30 31 32 33 34 35 36 37 38 39 40 41 42 43 44 45 46 47 48 49 50
000
ASUS43 KDTX 291901
RWRMI
MICHIGAN HOURLY REGIONAL WEATHER ROUNDUP
NATIONAL WEATHER SERVICE DETROIT/PONTIAC MI
300 PM EDT SAT APR 29 2017

NOTE: "FAIR" INDICATES FEW OR NO CLOUDS BELOW 12,000 FEET WITH NO
SIGNIFICANT WEATHER AND/OR OBSTRUCTION TO VISIBILITY.

MIZ047>049-052>055-059>063-066>070-074>076-081>083-292000-
SOUTHEAST LOWER MICHIGAN

CITY           SKY/WX    TMP DP  RH WIND       PRES   REMARKS
ADRIAN         LGT RAIN  47  43  86 E8        30.19F
ALMA           CLOUDY    54  34  47 E8        30.23F
ANN ARBOR      CLOUDY    49  38  65 NE9       30.19F
BAD AXE        CLOUDY    45  32  61 E7        30.27S
CARO           CLOUDY    51  35  54 NE6       30.25R
DETROIT CITY   CLOUDY    44  38  79 NE8       30.24S
DETROIT        CLOUDY    48  36  63 NE8       30.21F
FLINT          CLOUDY    54  37  52 E8        30.23R
GROSSE ILE     CLOUDY    45  38  76 NE12      30.20F
HILLSDALE      LGT RAIN  46  43  87 NE10      30.15F
HOWELL         CLOUDY    50  36  58 E6        30.21F

CITY           SKY/WX    TMP DP  RH WIND       PRES   REMARKS
JACKSON        CLOUDY    52  39  61 NE10      30.18F
LAMBERTVILLE   CLOUDY    43  40  89 NE8       30.18F
LANSING        CLOUDY    54  37  52 NE12      30.22S
LAPEER         CLOUDY    51  35  54 E5        30.24S
MASON          CLOUDY    50  40  68 NE6       30.21F
MONROE         LGT RAIN  44  41  89 NE9       30.17F
MT. CLEMENS    PTSUNNY   45  35  70 N9        30.24S
PONTIAC        CLOUDY    49  37  63 NE8       30.22S
PORT HOPE        N/A     41  34  76 N9        30.26F
PORT HURON     CLOUDY    41  28  60 NE9       30.27S
TRI CITIES     CLOUDY    52  35  52 E5        30.25R
MIDLAND        FAIR      53  34  48 E12       30.24R
TROY           LGT RAIN  47  34  59 NE8       30.25S
SAGINAW HB     CLOUDY    52  30  43 NE9G16    30.25R
$$
MIZ043>046-050>051-056>058-064>065-071>073-077>080-292000-
SOUTHWEST LOWER MICHIGAN

CITY           SKY/WX    TMP DP  RH WIND       PRES   REMARKS
BATTLE CREEK   CLOUDY    51  43  74 NE9       30.19F
BENTON HARBOR  RAIN      52  45  77 NE6       30.15F
BIG RAPIDS     CLOUDY    51  29  43 E8        30.23R
COLDWATER      CLOUDY    50  46  85 NE8G16    30.16F
FREMONT        FAIR      54  29  38 NE7       30.22S
HOLLAND        CLOUDY    54  37  52 E10       30.20S
GRAND RAPIDS   CLOUDY    54  38  54 E13       30.21S
IONIA          PTSUNNY   53  34  48 NE12      30.21F
KALAMAZOO      LGT RAIN  52  41  66 E7        30.19S
LUDINGTON      CLOUDY    46  35  66 NW10      30.26S
MARSHALL       CLOUDY    51  41  69 E7        30.18F
MOUNT PLEASANT PTSUNNY   54  30  40 NE8       30.23R
MUSKEGON       CLOUDY    56  32  40 E8        30.21F
SOUTH HAVEN    LGT RAIN  53  40  62 NE8       30.17F
$$
MIZ016>042-292000-
NORTHERN LOWER MICHIGAN

CITY           SKY/WX    TMP DP  RH WIND       PRES   REMARKS
ALPENA         MOSUNNY   51  29  42 N17       30.27S
BEAVER ISLAND  SUNNY     50  25  37 N9G22     30.29F
BELLAIRE       MOSUNNY   48  28  46 N8        30.29R
CADILLAC       CLOUDY    47  29  49 N8        30.23S
CHARLEVOIX     MOSUNNY   44  30  59 N8        30.33R
FRANKFORT      CLOUDY    44  29  56 N7G17     30.28F
GAYLORD        MOSUNNY   51  26  37 N8        30.24S
GRAYLING       MOSUNNY   51  28  40 N6        30.25R
HARBOR SPRINGS CLOUDY    48  32  55 NE6       30.28S
HOUGHTON LAKE  CLOUDY    52  28  39 N10       30.24R
MANISTEE       CLOUDY    49  30  48 E9G17     30.27R
OSCODA         CLOUDY    49  34  56 NE17      30.25R
PELLSTON       SUNNY     51  28  41 NW12G18   30.28S
ROGERS CITY    MOSUNNY   47  29  50 N9        30.29S
TRAVERSE CITY  CLOUDY    44  28  53 N12       30.28S
$$
MIZ007>008-015-292000-
EASTERN UPPER MICHIGAN

CITY           SKY/WX    TMP DP  RH WIND       PRES   REMARKS
KINROSS        SUNNY     44  26  49 NW17      30.28S
MACKINAC ISLAN SUNNY     48  28  46 N12G17    30.27F
NEWBERRY       SUNNY     45  27  50 N13G20    30.30S
S. S. MARIE    SUNNY     45  28  51 W16       30.28S
MUNISING         N/A     39  26  59 NW16      30.35R WCI  30
$$
MIZ004>006-011>014-085-292000-
CENTRAL UPPER MICHIGAN

CITY           SKY/WX    TMP DP  RH WIND       PRES   REMARKS
MANISTIQUE     SUNNY     50  25  36 N15       30.30S
ESCANABA       SUNNY     49  25  39 NE8G20    30.31S
MENOMINEE      CLOUDY    45  30  55 E9        30.33R
SAWYER-GWINN   SUNNY     43  19  39 NE10G16   30.33S
$$
MIZ001>003-009>011-084-292000-
WESTERN UPPER MICHIGAN

CITY           SKY/WX    TMP DP  RH WIND       PRES   REMARKS
IRON MOUNTAIN  CLOUDY    50  19  29 VRB7      30.29R
HOUGHTON       SUNNY     45  21  38 N7        30.34R
COPPER HARBOR    N/A     39  27  62 NE7       30.37R WCI  34
IRONWOOD       SUNNY     43  25  49 N14       30.34R
$$

ABBREVIATIONS USED IN REMARKS
   TC - TEMPERATURE IN CELSIUS
  WCI - WIND CHILL INDEX
   HX - HEAT INDEX
  VSB - VISIBILITY




USA.gov is the U.S. government's official web portal to all federal, state and local government web resources and services.